Date String (YYYY-MM-DD hh:mm:ss) UTC,Instrument flags,Ambient pressure (hPa),Sample flow (lpm),Bypass flow (lpm),Sample temperature (°C),Ambient temperature (°C),ASC tube jacket temperature (°C),LED temperature (°C),Box temperature (°C),Sample RH (%),Span deviation,Mass concentration (μg/m³),Mass concentration (μg/m³),Mass concentration (μg/m³)
DateTimeUTC,F1_M11,P_M11,Q1_M11,Q2_M11,T1_M11,T2_M11,T3_M11,T4_M11,T5_M11,U1_M11,ZSPAN_M11,X0_M11,X2_M11,X1_M11
2023-05-12 19:00:00,,0830.7,4.99,0.00,25.9,24.6,00.0,34.1,27.6,28.9,0000.0,0002.40,0000.35,0000.14
2023-05-12 19:01:00,,0830.6,5.00,0.00,25.9,24.6,00.0,34.1,27.6,28.7,0000.0,0002.44,0000.36,0000.15
2023-05-12 19:02:00,,0830.7,5.00,0.00,25.9,24.6,00.0,34.1,27.6,28.9,0000.0,0002.50,0000.38,0000.15
2023-05-12 19:03:00,,0830.6,5.00,0.00,25.9,24.6,00.0,34.1,27.6,29.0,0000.0,0001.50,0000.39,0000.16
2023-05-12 19:04:00,,0830.6,5.00,0.00,25.9,24.6,00.0,34.1,27.6,28.0,0000.0,0000.95,0000.39,0000.15
2023-05-12 19:05:00,,0830.5,5.00,0.00,25.9,24.6,00.0,34.2,27.6,29.6,0000.0,0000.95,0000.41,0000.15
2023-05-12 19:06:00,,0830.8,5.00,0.00,25.9,24.6,00.0,34.2,27.7,28.1,0000.0,0000.97,0000.43,0000.15
2023-05-12 19:07:00,,0830.8,4.99,0.00,25.9,24.7,00.0,34.2,27.7,27.5,0000.0,0000.90,0000.41,0000.15
2023-05-12 19:08:00,,0830.8,5.00,0.00,25.9,24.7,00.0,34.2,27.7,27.5,0000.0,0000.94,0000.41,0000.15
2023-05-12 19:09:00,,0830.7,5.00,0.00,26.0,24.7,00.0,34.2,27.7,27.6,0000.0,0001.10,0000.42,0000.15
2023-05-12 19:10:00,,0830.5,5.00,0.00,26.0,24.8,00.0,34.2,27.7,27.2,0000.0,0001.06,0000.41,0000.15
2023-05-12 19:11:00,,0830.4,5.00,0.00,26.0,24.8,00.0,34.2,27.8,27.8,0000.0,0001.17,0000.45,0000.15
2023-05-12 19:12:00,,0830.5,5.00,0.00,26.0,24.8,00.0,34.3,27.8,28.4,0000.0,0001.46,0000.51,0000.16
2023-05-12 19:13:00,,0830.5,5.00,0.00,26.1,24.9,00.0,34.3,27.8,27.3,0000.0,0001.64,0000.52,0000.15
2023-05-12 19:14:00,,0830.6,5.00,0.00,26.1,24.9,00.0,34.3,27.8,23.5,0000.0,0001.96,0000.52,0000.15
2023-05-12 19:15:00,,0830.5,4.99,0.00,26.1,24.9,00.0,34.3,27.9,23.2,0000.0,0001.91,0000.49,0000.14
2023-05-12 19:16:00,,0830.4,5.01,0.00,26.1,25.0,00.0,34.3,27.9,22.6,0000.0,0002.09,0000.47,0000.14
2023-05-12 19:17:00,,0830.5,5.00,0.00,26.2,25.0,00.0,34.4,27.9,23.9,0000.0,0002.04,0000.43,0000.13
2023-05-12 19:18:00,,0830.5,5.00,0.00,26.2,25.0,00.0,34.4,27.9,24.4,0000.0,0002.09,0000.43,0000.13
2023-05-12 19:19:00,,0830.6,5.00,0.00,26.2,25.1,00.0,34.4,28.0,24.1,0000.0,0002.17,0000.41,0000.12
2023-05-12 19:20:00,,0830.6,5.01,0.00,26.2,25.1,00.0,34.4,28.0,22.9,0000.0,0002.25,0000.41,0000.12
2023-05-12 19:21:00,,0830.5,5.00,0.00,26.2,25.1,00.0,34.4,28.0,22.9,0000.0,0002.20,0000.39,0000.11
2023-05-12 19:22:00,,0830.7,5.01,0.00,26.3,25.1,00.0,34.5,28.0,22.9,0000.0,0002.14,0000.37,0000.11
2023-05-12 19:23:00,,0830.7,5.00,0.00,26.3,25.2,00.0,34.5,28.1,23.4,0000.0,0001.88,0000.31,0000.11
2023-05-12 19:24:00,,0830.6,5.01,0.00,26.3,25.2,00.0,34.5,28.1,22.0,0000.0,0001.63,0000.28,0000.10
2023-05-12 19:25:00,,0830.5,5.01,0.00,26.3,25.2,00.0,34.5,28.1,21.7,0000.0,0001.33,0000.26,0000.10
2023-05-12 19:26:00,,0830.6,5.00,0.00,26.4,25.2,00.0,34.5,28.1,22.3,0000.0,0001.36,0000.26,0000.10
2023-05-12 19:27:00,,0830.6,5.00,0.00,26.4,25.3,00.0,34.6,28.1,23.0,0000.0,0001.18,0000.25,0000.10
2023-05-12 19:28:00,,0830.6,4.99,0.00,26.4,25.3,00.0,34.6,28.2,22.1,0000.0,0001.09,0000.24,0000.10
2023-05-12 19:29:00,,0830.6,4.99,0.00,26.4,25.3,00.0,34.6,28.2,21.7,0000.0,0001.03,0000.24,0000.11
2023-05-12 19:30:00,,0830.5,5.00,0.00,26.4,25.3,00.0,34.6,28.2,20.7,0000.0,0001.02,0000.23,0000.11
2023-05-12 19:31:00,,0830.4,5.01,0.00,26.5,25.3,00.0,34.6,28.2,21.7,0000.0,0000.63,0000.21,0000.11
2023-05-12 19:32:00,,0830.4,5.00,0.00,26.5,25.3,00.0,34.7,28.2,21.1,0000.0,0000.61,0000.22,0000.12
2023-05-12 19:33:00,,0830.5,4.99,0.00,26.5,25.4,00.0,34.7,28.3,20.5,0000.0,0000.81,0000.26,0000.12
2023-05-12 19:34:00,,0830.5,4.99,0.00,26.5,25.4,00.0,34.7,28.3,20.7,0000.0,0000.76,0000.24,0000.11
2023-05-12 19:35:00,,0830.4,5.01,0.00,26.6,25.4,00.0,34.7,28.3,20.7,0000.0,0000.77,0000.25,0000.12
2023-05-12 19:36:00,,0830.4,5.00,0.00,26.6,25.4,00.0,34.8,28.3,20.8,0000.0,0000.83,0000.26,0000.12
2023-05-12 19:37:00,,0830.4,5.00,0.00,26.6,25.5,00.0,34.8,28.3,21.8,0000.0,0000.72,0000.25,0000.12
2023-05-12 19:38:00,,0830.5,5.00,0.00,26.6,25.5,00.0,34.8,28.4,22.9,0000.0,0000.75,0000.26,0000.12
2023-05-12 19:39:00,,0830.5,4.99,0.00,26.6,25.5,00.0,34.8,28.4,22.5,0000.0,0000.76,0000.27,0000.12
2023-05-12 19:40:00,,0830.4,4.99,0.00,26.7,25.5,00.0,34.8,28.4,23.2,0000.0,0000.78,0000.28,0000.12
2023-05-12 19:41:00,,0830.5,4.99,0.00,26.7,25.5,00.0,34.9,28.4,24.0,0000.0,0000.78,0000.27,0000.11
2023-05-12 19:42:00,,0830.4,5.00,0.00,26.7,25.6,00.0,34.9,28.5,23.6,0000.0,0000.94,0000.30,0000.11
2023-05-12 19:43:00,,0830.4,5.01,0.00,26.7,25.6,00.0,34.9,28.5,23.8,0000.0,0000.91,0000.31,0000.10
2023-05-12 19:44:00,,0830.4,5.01,0.00,26.7,25.6,00.0,34.9,28.5,23.1,0000.0,0000.75,0000.28,0000.10
2023-05-12 19:45:00,,0830.4,5.00,0.00,26.8,25.6,00.0,34.9,28.5,23.9,0000.0,0000.89,0000.29,0000.10
2023-05-12 19:46:00,,0830.4,5.00,0.00,26.8,25.7,00.0,35.0,28.6,21.8,0000.0,0000.97,0000.29,0000.09
2023-05-12 19:47:00,,0830.3,4.99,0.00,26.8,25.7,00.0,35.0,28.6,20.8,0000.0,0000.89,0000.28,0000.10
2023-05-12 19:48:00,,0830.4,5.00,0.00,26.8,25.7,00.0,35.0,28.6,20.1,0000.0,0001.03,0000.33,0000.10
2023-05-12 19:49:00,,0830.4,5.01,0.00,26.8,25.7,00.0,35.0,28.6,20.7,0000.0,0001.07,0000.34,0000.11
2023-05-12 19:50:00,,0830.4,5.01,0.00,26.9,25.7,00.0,35.0,28.6,21.0,0000.0,0001.17,0000.35,0000.11
2023-05-12 19:51:00,,0830.5,5.00,0.00,26.9,25.7,00.0,35.1,28.6,21.3,0000.0,0001.23,0000.36,0000.11
2023-05-12 19:52:00,,0830.4,5.00,0.00,26.9,25.8,00.0,35.1,28.6,22.2,0000.0,0001.30,0000.37,0000.10
2023-05-12 19:53:00,,0830.3,4.99,0.00,26.9,25.8,00.0,35.1,28.7,23.2,0000.0,0001.16,0000.34,0000.10
2023-05-12 19:54:00,,0830.2,5.00,0.00,26.9,25.8,00.0,35.1,28.7,22.6,0000.0,0001.18,0000.35,0000.11
2023-05-12 19:55:00,,0830.2,5.01,0.00,27.0,25.8,00.0,35.2,28.7,20.6,0000.0,0001.11,0000.33,0000.11
2023-05-12 19:56:00,,0830.3,5.00,0.00,27.0,25.8,00.0,35.2,28.7,20.9,0000.0,0000.98,0000.31,0000.11
2023-05-12 19:57:00,,0830.3,4.99,0.00,27.0,25.9,00.0,35.2,28.7,23.7,0000.0,0000.88,0000.31,0000.11
2023-05-12 19:58:00,,0830.3,5.01,0.00,27.0,25.9,00.0,35.2,28.8,23.3,0000.0,0000.86,0000.31,0000.11
2023-05-12 19:59:00,,0830.2,5.01,0.00,27.0,25.9,00.0,35.2,28.8,21.7,0000.0,0000.98,0000.30,0000.11
